Location: Sternwarte Stuttgart
(48.7670°N, 9.1830°E)
Time: 13:35:53
(UTC+01:00)

Lacrosse 5 rocket - Pass Details

Date: 24 January 2019
Orbit: 469 x 630 km, 57.0° (Epoch: 06 February)

Event Time Altitude Azimuth Distance (km) Brightness Sun altitude
Exits shadow 05:06:52 42° 90° (E) 849 2.6 -28.8°
Drops below altitude 10° 05:10:09 10° 61° (ENE) 1,957 4.9 -28.3°
Sets 05:12:32 0° 56° (ENE) 2,884 5.9 -27.9°
